Regional Weather Roundup
Issued by NWS

Home | Current Version | Previous Version | Graphics & Text | Print | Product List | Glossary On
Versions: 1 2 3 4 5 6 7 8 9 10 11 12 13 14 15 16 17 18 19 20 21 22 23 24 25 26 27 28 29 30 31 32 33 34 35 36 37 38 39 40 41 42 43 44 45 46 47 48 49 50
000
ASUS43 KMKX 241821
RWRWI

WISCONSIN REGIONAL WEATHER ROUNDUP
NATIONAL WEATHER SERVICE MILWAUKEE/SULLIVAN WI
1200 PM CST WED DEC 24 2014

NOTE: "FAIR" INDICATES FEW OR NO CLOUDS BELOW 12,000 FEET WITH NO
SIGNIFICANT WEATHER AND/OR OBSTRUCTIONS TO VISIBILITY.

WIZ001-002-006>008-014>016-023>028-241900-
NORTHWEST WISCONSIN

CITY           SKY/WX    TMP DP  RH WIND       PRES   REMARKS
SUPERIOR ARPT  CLOUDY    36  30  80 N6        29.69F WCI  31
6HR MIN TEMP:  33; 6HR MAX TEMP:  36;

ASHLAND        LGT SNOW  33  32  96 N5        29.65F VSB 3/4 WCI  29
6HR MIN TEMP:  33; 6HR MAX TEMP:  33; 6HR PCP:  0.01;

HAYWARD        CLOUDY    34  31  88 VRB3      29.65F
6HR MIN TEMP:  33; 6HR MAX TEMP:  34; 6HR PCP: TRACE;

SIREN          CLOUDY    34  32  92 N7        29.69F WCI  28
6HR MIN TEMP:  32; 6HR MAX TEMP:  34;

CUMBERLAND     CLOUDY    32  30  93 N9        29.65F WCI  24
RICE LAKE      CLOUDY    34  31  87 NW6       29.67F WCI  29
6HR MIN TEMP:  33; 6HR MAX TEMP:  34;

CHETEK         LGT RAIN  33  32  95 NW6       29.65F WCI  28
6HR MIN TEMP:  33; 6HR MAX TEMP:  34;

LADYSMITH      CLOUDY    34  31  90 NW8       29.64F WCI  27
6HR MIN TEMP:  33; 6HR MAX TEMP:  34;

EAU CLAIRE     CLOUDY    36  30  79 N8        29.64F WCI  30
6HR MIN TEMP:  34; 6HR MAX TEMP:  36;

MENOMONIE      CLOUDY    35  32  88 NW7       29.66F WCI  30
6HR MIN TEMP:  34; 6HR MAX TEMP:  36;

NEW RICHMOND   CLOUDY    36  32  88 NW8       29.68F WCI  29
6HR MIN TEMP:  33; 6HR MAX TEMP:  36;

OSCEOLA        CLOUDY    36  34  95 NW7       29.72F WCI  30
6HR MIN TEMP:  34; 6HR MAX TEMP:  36;

$$

WIZ003>005-009-010-017-018-241900-
NORTH CENTRAL WISCONSIN

CITY           SKY/WX    TMP DP  RH WIND       PRES   REMARKS
MANITOWISH WTR CLOUDY    30  30  98 N3        29.58F
6HR MIN TEMP:  30; 6HR MAX TEMP:  31;

ARBOR VITAE    CLOUDY    32  29  90 N7        29.57F WCI  25
6HR MIN TEMP:  32; 6HR MAX TEMP:  33;

WOODRUFF       CLOUDY    32  29  90 N7        29.57F WCI  25
6HR MIN TEMP:  32; 6HR MAX TEMP:  33;

RHINELANDER    CLOUDY    31  28  89 N8        29.55F WCI  23
6HR MIN TEMP:  31; 6HR MAX TEMP:  31; 6HR PCP:  0.02;

EAGLE RIVER    CLOUDY    31  30  95 N5        29.56F WCI  27
6HR MIN TEMP:  31; 6HR MAX TEMP:  32;

LAND O LAKES   CLOUDY    32  29  90 N7        29.58F WCI  25
6HR MIN TEMP:  31; 6HR MAX TEMP:  32;

PHILLIPS       CLOUDY    32  29  91 N7        29.60F WCI  25
6HR MIN TEMP:  31; 6HR MAX TEMP:  32;

TOMAHAWK       CLOUDY    32  29  90 NW7       29.58F WCI  25
6HR MIN TEMP:  31; 6HR MAX TEMP:  32;

MEDFORD        CLOUDY    32  29  88 N9        29.57F WCI  24
6HR MIN TEMP:  31; 6HR MAX TEMP:  32;

MERRILL        CLOUDY    33  32  96 N8        29.57F WCI  26
6HR MIN TEMP:  32; 6HR MAX TEMP:  33;

$$

WIZ029-030-035-036-043>047-241900-
CENTRAL WISCONSIN

CITY           SKY/WX    TMP DP  RH WIND       PRES   REMARKS
WAUSAU         CLOUDY    34  31  88 N5        29.55F WCI  30
6HR MIN TEMP:  32; 6HR MAX TEMP:  34; 6HR PCP:  0.02;

MOSINEE        CLOUDY    34  34 100 N8        29.58F WCI  27
MARSHFIELD     CLOUDY    35  31  85 N7        29.57F WCI  29
6HR MIN TEMP:  33; 6HR MAX TEMP:  35; 6HR PCP: TRACE;

STEVENS POINT  CLOUDY    32  32  99 N6        29.57F WCI  26
6HR MIN TEMP:  31; 6HR MAX TEMP:  32;

WAUPACA        LGT RAIN  35  34  95 NW6       29.57F WCI  30
6HR MIN TEMP:  35; 6HR MAX TEMP:  36;

WAUTOMA        CLOUDY    35  35 100 N6        29.57F WCI  30
6HR MIN TEMP:  33; 6HR MAX TEMP:  35;

WISC RAPIDS    CLOUDY    34  31  88 N8        29.58F WCI  27
6HR MIN TEMP:  33; 6HR MAX TEMP:  34; 6HR PCP: TRACE;

CAMP DOUGLAS   CLOUDY    34  34 100 N6        29.58F WCI  29
                                      6HR PCP:  0.07;

$$

WIZ011>013-019>022-031-037>040-048>050-241900-
NORTHEAST WISCONSIN

CITY           SKY/WX    TMP DP  RH WIND       PRES   REMARKS
ANTIGO         CLOUDY    32  30  94 N10       29.55F WCI  23
6HR MIN TEMP:  31; 6HR MAX TEMP:  32;

SHAWANO        CLOUDY    36  34  95 N5        29.57F FOG     WCI  32
6HR MIN TEMP:  34; 6HR MAX TEMP:  36;

OCONTO         CLOUDY    34  34 100 CALM      29.56F
6HR MIN TEMP:  33; 6HR MAX TEMP:  34;

STURGEON BAY   CLOUDY    36  32  87 N9        29.55F VSB 1   WCI  29
6HR MIN TEMP:  36; 6HR MAX TEMP:  37;

GREEN BAY      LGT RAIN  34  34 100 N3        29.54F FOG
6HR MIN TEMP:  34; 6HR MAX TEMP:  35; 6HR PCP: TRACE;

MANITOWOC      CLOUDY    38  37  97 NW6       29.54F FOG     WCI  33
6HR MIN TEMP:  35; 6HR MAX TEMP:  38;

APPLETON       FOG       34  34 100 N6        29.56F VSB 1/2 WCI  29
CLINTONVILLE   CLOUDY    34  32  93 N3        29.57F FOG
OSHKOSH        FOG       35  33  92 N7        29.55F VSB 1/4 WCI  29
6HR MIN TEMP:  35; 6HR MAX TEMP:  35;

$$

WIZ032>034-041-042-053>061-241900-
SOUTHWEST WISCONSIN

CITY           SKY/WX    TMP DP  RH WIND       PRES   REMARKS
LA CROSSE      CLOUDY    38  32  79 N9        29.62F WCI  31
6HR MIN TEMP:  34; 6HR MAX TEMP:  38; 6HR PCP: TRACE;

SPARTA         CLOUDY    35  33  94 N6        29.61F WCI  30
6HR MIN TEMP:  32; 6HR MAX TEMP:  35; 6HR PCP:  0.02;

VIROQUA        CLOUDY    33  33 100 N9        29.58F WCI  25
6HR MIN TEMP:  32; 6HR MAX TEMP:  33;

BOSCOBEL       CLOUDY    37  32  82 N7        29.60F WCI  32
6HR MIN TEMP:  34; 6HR MAX TEMP:  37; 6HR PCP:  0.01;

PRAIRIE DU CHI CLOUDY    36  32  85 NW9       29.61F WCI  29
6HR MIN TEMP:  33; 6HR MAX TEMP:  36;

PLATTEVILLE    CLOUDY    35  32  90 CALM      29.58F
6HR MIN TEMP:  33; 6HR MAX TEMP:  35;

$$

WIZ056-057-062-063-064-067-068-241900-
SOUTH CENTRAL WISCONSIN

CITY           SKY/WX    TMP DP  RH WIND       PRES   REMARKS
REEDSBURG      DRIZZLE   33  32  98 NW7       29.57F WCI  26
6HR MIN TEMP:  32; 6HR MAX TEMP:  33;

BARABOO/DELLS  DRIZZLE   33  33  99 NW5       29.55F WCI  29
6HR MIN TEMP:  33; 6HR MAX TEMP:  33;

LONE ROCK      CLOUDY    39  32  76 NW9       29.58F WCI  33
6HR MIN TEMP:  37; 6HR MAX TEMP:  39; 6HR PCP: TRACE;

MINERAL POINT  CLOUDY    34  34 100 NW7       29.55F WCI  28
MADISON        FLURRIES  35  33  92 N7        29.55F WCI  29
6HR MIN TEMP:  34; 6HR MAX TEMP:  35; 6HR PCP: TRACE;

MIDDLETON      CLOUDY    36  36 100 N5        29.56F WCI  32
6HR MIN TEMP:  35; 6HR MAX TEMP:  37;

WATERTOWN      FOG       35  35 100 NW8       29.54F VSB 1/4 WCI  28
6HR MIN TEMP:  35; 6HR MAX TEMP:  35;

MONROE         CLOUDY    34  34 100 NW5       29.54F WCI  30
JANESVILLE     CLOUDY    37  36  93 NW6       29.55F FOG     WCI  33
$$

WIZ051-052-058>065-066-070>072-241900-
SOUTHEAST WISCONSIN

CITY           SKY/WX    TMP DP  RH WIND       PRES   REMARKS
MILWAUKEE      CLOUDY    38  34  85 NW5       29.52F WCI  34
6HR MIN TEMP:  36; 6HR MAX TEMP:  38;

WAUKESHA       CLOUDY    36  36 100 NW6       29.53F FOG     WCI  31
MILWAUKEE/TIMM CLOUDY    37  34  87 CALM      29.53F
RACINE         CLOUDY    38  35  89 NW6       29.53F WCI  33
6HR MIN TEMP:  35; 6HR MAX TEMP:  38;

BURLINGTON     CLOUDY    35  35  99 NW8       29.52F WCI  29
6HR MIN TEMP:  31; 6HR MAX TEMP:  35;

KENOSHA        CLOUDY    38  36  92 NW6       29.52F WCI  33
6HR MIN TEMP:  34; 6HR MAX TEMP:  38;

FOND DU LAC    FOG       36  34  92 N7        29.55F VSB 1/4 WCI  30
6HR MIN TEMP:  35; 6HR MAX TEMP:  36;

SHEBOYGAN      CLOUDY    38  36  92 NW5       29.53F WCI  34
6HR MIN TEMP:  33; 6HR MAX TEMP:  38;

WEST BEND      CLOUDY    36  34  93 NW7       29.53F WCI  30
JUNEAU         FOG       34  34 100 NW7       29.55F VSB<1/4 WCI  28
6HR MIN TEMP:  34; 6HR MAX TEMP:  35;

$$

LSZ147-162-241900-
LAKE SUPERIOR

STATION/POSITION TIME  TEMP    WIND        PRES    WAVE
                       AIR SEA DIR/SP/G            HT/PER
                 (UTC) (F)     (DEG/KT/KT) (MB)    (FT/S)
DEVILS ISLAND    1800   33      70/  6/  7 1005.3F
PORT WING        1700   36      30/  5/  7 1006.4F
SAXON HARBOR     1700   33        CALM     1005.8
$$

LMZ867-665-643>646-241900-
LAKE MICHIGAN

STATION/POSITION TIME  TEMP    WIND        PRES    WAVE



USA.gov is the U.S. government's official web portal to all federal, state and local government web resources and services.